カタログに戻る

AYAME 1

ECS 1

運用中通信HEO
NORAD 11261·PAYLOAD·🇯🇵 Japan

打ち上げ Feb 6, 1979 から Tanegashima Space Center

Loading…

次のパス (今後24時間)

TLE

最新Source: Space-Track

元期: Sep 14, 2026, 06:19 UTC

1 11261U 79009A   26257.26355091 -.00000100  00000-0  00000-0 0  9991
2 11261   9.4721 298.9946 3677525 151.6505 256.9933  1.68584184177660

AllMySatでAYAME 1をリアルタイム追跡

Download on the App Store